Observations for Trim Patrick St
| Time | AQI | Temp °C | Hum % | Pres Pa | CO μg/m³ | H₂S μg/m³ | NO μg/m³ | NO₂ μg/m³ | O₃ μg/m³ | SO₂ μg/m³ | PM1 μg/m³ | PM2.5 μg/m³ | PM10 μg/m³ |
|---|---|---|---|---|---|---|---|---|---|---|---|---|---|
| Thursday 27 August 2026 | |||||||||||||
| 14:15 | 3 | 20.6 | 77 | 38,460 | 0.04 | 0 | 5.95 | 26.49 | 30.14 | 2.2 | 16.57 | 24.51 | 24.52 |
| 14:13 | 3 | 20.6 | 77 | 38,460 | 0.05 | 0.09 | 4.52 | 20.59 | 29.39 | 1.61 | 15.71 | 23.06 | 25.37 |
| 14:12 | 3 | 20.6 | 77 | 38,460 | 0.05 | 0 | 1.5 | 20.32 | 32.53 | 2.79 | 18.29 | 23.77 | 26.15 |
| 14:10 | 3 | 20.6 | 77 | 38,460 | 0.01 | 0 | 1.32 | 9.66 | 40.4 | 2.29 | 14 | 19.58 | 21.53 |
| 14:06 | 3 | 20.5 | 77 | 38,460 | 0.02 | 0 | 2.65 | 8.51 | 43.86 | 2.03 | 16.57 | 23.79 | 26.17 |
| 14:05 | 3 | 20.6 | 77 | 38,460 | 0.02 | 0 | 3.53 | 7.16 | 48.04 | 2.74 | 18.29 | 25.2 | 27.71 |
| 14:04 | 3 | 20.5 | 77 | 38,460 | 0.04 | 0 | 6.95 | 11.79 | 39.7 | 2.05 | 18.29 | 23.78 | 26.16 |
| 14:03 | 3 | 20.5 | 77 | 38,460 | 0.02 | 0 | 6.1 | 9.8 | 38.92 | 1.44 | 16.57 | 24.49 | 26.94 |
| 14:02 | 3 | 20.5 | 77 | 38,460 | 0.06 | 0 | 5.3 | 14.62 | 36.19 | 1.89 | 18.29 | 26.56 | 29.21 |
| 14:01 | 3 | 20.5 | 77 | 38,460 | 0.1 | 1.14 | 4.24 | 31.35 | 28.81 | 2.56 | 18.29 | 25.17 | 27.69 |
| 14:00 | 3 | 20.5 | 77 | 38,460 | 0.07 | 0.56 | 2.97 | 20.28 | 28.65 | 3.63 | 19.14 | 25.16 | 27.67 |
| 13:59 | 3 | 20.5 | 77 | 38,460 | 0.16 | 2.8 | 1.73 | 18.28 | 35.2 | 1.92 | 18.29 | 23.73 | 26.11 |
| 13:58 | 3 | 20.5 | 77 | 38,460 | 0.44 | 5.46 | 2.15 | 33.46 | 29.04 | 3.27 | 16.57 | 23.76 | 26.13 |
| 13:57 | 3 | 20.5 | 77 | 38,460 | 0.32 | 1.2 | 1.62 | 15.21 | 32.89 | 2.35 | 18.29 | 25.18 | 27.7 |
| 13:56 | 3 | 20.5 | 77 | 38,460 | 0.03 | 0 | 1.6 | 8.81 | 41.52 | 2.44 | 15.71 | 23.05 | 25.36 |
| 13:55 | 3 | 20.4 | 77 | 38,460 | 0.05 | 0 | 1.37 | 11.7 | 36.44 | 1.79 | 17.43 | 26.58 | 29.24 |
| 13:54 | 3 | 20.4 | 77 | 38,460 | 0.06 | 0 | 1.33 | 8.8 | 43.23 | 2.23 | 15.71 | 23.04 | 25.34 |
| 13:53 | 3 | 20.4 | 78 | 38,460 | 0.08 | 0 | 1.54 | 8 | 45.99 | 2.45 | 16.57 | 21.61 | 23.77 |
| 13:52 | 3 | 20.4 | 77 | 38,460 | 0.22 | 0 | 2 | 10.72 | 34.19 | 1.8 | 19.14 | 27.29 | 30.02 |
| 13:51 | 3 | 20.4 | 77 | 38,460 | 0.15 | 0 | 2.12 | 13.17 | 38.02 | 1.11 | 20 | 27.26 | 29.99 |